Regional Weather Roundup
Issued by NWS

Home | Current Version | Previous Version | Graphics & Text | Print | Product List | Glossary On
Versions: 1 2 3 4 5 6 7 8 9 10 11 12 13 14 15 16 17 18 19 20 21 22 23 24 25 26 27 28 29 30 31 32 33 34 35 36 37 38 39 40 41 42 43 44 45 46 47 48 49 50
000
ASUS43 KOAX 160502
RWRNE

WEATHER ROUNDUP FOR NEBRASKA
NATIONAL WEATHER SERVICE OMAHA NE
1100 PM CST SUN JAN 15 2017

NOTES: SATELLITE DATA IS BEING USED TO AUGMENT CLOUD COVER ABOVE
       12000 FEET.
       "FAIR" INDICATES FEW OR NO CLOUDS BELOW 12,000 FEET WITH NO
       SIGNIFICANT WEATHER AND/OR OBSTRUCTIONS TO VISIBILITY.

  * THESE STATIONS DO NOT REPORT WEATHER SUCH AS RAIN...SNOW OR FOG.

NEZ001>004-019>022-054>056-160600-
NEBRASKA PANHANDLE

CITY           SKY/WX    TMP DP  RH WIND       PRES   REMARKS
SCOTTSBLUFF    CLOUDY    31  26  82 CALM      30.01R
ALLIANCE       CLOUDY    30  26  85 N6        29.99S WCI  24
CHADRON        CLOUDY    26  21  81 CALM      30.03S
KIMBALL        FLURRIES  32  29  88 NW3       29.97S
SIDNEY         LGT SNOW  30  28  92 NW8       29.97F FOG     WCI  22
$$

NEZ057>060-069>072-079>082-160600-
SOUTHWEST NEBRASKA

CITY           SKY/WX    TMP DP  RH WIND       PRES   REMARKS
NORTH PLATTE   MIX PCPN  31  30  96 E3        30.03R FOG
IMPERIAL       CLOUDY    30  29  96 SE3       30.00S
LEXINGTON      MIX PCPN  32  30  93 CALM      30.04S
MCCOOK         CLOUDY    30  30 100 E5        30.02F WCI  25
OGALLALA       MIX PCPN  32  31  96 CALM      30.02R
$$

NEZ005>010-023>029-035>040-094-160600-
NORTH CENTRAL NEBRASKA

CITY           SKY/WX    TMP DP  RH WIND       PRES   REMARKS
VALENTINE      CLOUDY    29  22  75 CALM      30.04S
AINSWORTH      CLOUDY    30  25  82 CALM      30.04S
BROKEN BOW     FRZ RAIN  31  30  96 E5        30.04R WCI  26
O`NEILL        CLOUDY    32  27  80 CALM      30.08S
ORD            MIX PCPN  31  28  89 SE6       30.06S FOG     WCI  25
THEDFORD       MIX PCPN  32  31  96 CALM      30.03S
$$

NEZ041-046>049-061>064-073>077-083>087-160600-
SOUTH CENTRAL NEBRASKA

CITY           SKY/WX    TMP DP  RH WIND       PRES   REMARKS
GRAND ISLAND   FRZ RAIN  30  30 100 SE3       30.08F
AURORA         MIX PCPN  30  30  99 E3        30.08S
HASTINGS       FRZ RAIN  31  29  92 E3        30.07F
HEBRON         MIX PCPN  32  31  96 E3        30.11R
HOLDREGE       MIX PCPN  31  29  95 E5        30.04F WCI  26
KEARNEY *      CLOUDY    30  27  86 CALM      30.06F
YORK           CLOUDY    30  30 100 CALM      30.10S
$$

NEZ011>018-030>034-042>045-160600-
NORTHEAST NEBRASKA

CITY           SKY/WX    TMP DP  RH WIND       PRES   REMARKS
NORFOLK        CLOUDY    30  27  88 E5        30.10F FOG     WCI  25
ALBION         CLOUDY    31  29  92 E5        30.10R WCI  26
BLAIR          MIX PCPN  32  31  96 E3        30.13F
FREMONT        MIX PCPN  32  32 100 CALM      30.14F
TEKAMAH        FRZ RAIN  32  30  92 CALM      30.16S FOG
WAYNE          MIX PCPN  31  29  94 SE5       30.13F WCI  26
$$

NEZ050>053-065>068-078-088>093-160600-
SOUTHEAST NEBRASKA

CITY           SKY/WX    TMP DP  RH WIND       PRES   REMARKS
LINCOLN        FRZ RAIN  32  30  92 SE6       30.14S WCI  26
OMAHA EPPLEY   FRZ RAIN  32  28  85 E3        30.15F FOG
BEATRICE       CLOUDY    32  32  99 SE5       30.12S WCI  27
FALLS CITY     CLOUDY    32  31  96 E5        30.14R WCI  27
NEBRASKA CITY  MIX PCPN  32  32 100 E3        30.13F
PLATTSMOUTH    MIX PCPN  32  30  91 E5        30.14S WCI  27
$$

NEZ044-045-051>053-067-160600-
OMAHA AREA

CITY           SKY/WX    TMP DP  RH WIND       PRES   REMARKS
OMAHA EPPLEY   FRZ RAIN  32  28  85 E3        30.15F FOG
BLAIR          MIX PCPN  32  31  96 E3        30.13F
FREMONT        MIX PCPN  32  32 100 CALM      30.14F
MILLARD        DRIZZLE   33  32  94 CALM      30.14F
OFFUTT AFB     FRZ DRZL  32  32 100 CALM      30.14F FOG
PLATTSMOUTH    MIX PCPN  32  30  91 E5        30.14S WCI  27
WAHOO          CLOUDY    32  31  96 E5        30.13F FOG     WCI  27
$$




USA.gov is the U.S. government's official web portal to all federal, state and local government web resources and services.